www.pogodaiklimat.ru

Погода и климат >> Архив погоды >> Италия >> Матера


ПОГОДА в Матере

  • Прогноз погоды в Матере
  • Монитор погоды в Матере

АРХИВ ПОГОДЫ в Матере

Время (UTC), дата Ветер
(напр.,м/с)
 
Видим.   Явления Облачность Т
(С)
Тd
(С)
f
(%)
Тe
(С)
Тes
(С)
Комфортность P
(гПа)
Po
(гПа)
Тmin
(С)
Tmax
(С)
R
(мм)
R24
(мм)
S
(см)
22 16.01 СЗ 4 н/о н/о +3.0 -1.4 73 -1 -1 1026.1 965.2
23 16.01 СЗ 3 н/о н/о +2.5 -0.6 80 -1 -1 1025.9 964.9
00 17.01 ЮЗ 2 н/о н/о +3.3 -0.4 77 0 0 1025.0 964.2
01 17.01 ЮЗ 3 н/о н/о +4.2 +0.1 75 +1 +1 1024.6 964.0
02 17.01 ЮЗ 2 н/о н/о +3.5 -0.6 75 +1 +1 1024.8 964.0
03 17.01 ЮЗ 2 н/о н/о +3.5 -0.2 77 +1 +1 1024.3 963.6
04 17.01 З 5 н/о н/о +3.1 -0.6 77 -2 -2 1023.7 963.0
05 17.01 З 4 н/о н/о +2.8 -0.9 77 -2 -2 1023.6 962.8
06 17.01 ЮЗ 5 н/о н/о +3.0 -0.7 77 -2 -2 1023.6 962.8 +2.3 208
07 17.01 З 2 н/о н/о +4.0 -0.7 71 +2 +2 1023.1 962.7
08 17.01 ЮЗ 2 н/о н/о +6.0 +0.3 67 +4 +4 1022.9 962.8
09 17.01 ЮЗ 3 н/о н/о +8.3 +2.5 67 +6 +6 1022.9 963.2
10 17.01 ЮЗ 3 н/о н/о +9.1 +0.2 54 +7 +7 1022.7 963.3
11 17.01 ЮЗ 2 н/о н/о +9.9 +0.4 52 +9 +9 1021.8 962.5
12 17.01 ЮЗ 4 н/о н/о +9.7 +0.7 53 +7 +7 1021.1 961.9
13 17.01 ЮЗ 4 н/о н/о +10.1 0.0 49 +8 +8 1020.5 961.4
14 17.01 ЮЗ 4 н/о н/о +9.9 +1.4 55 +8 +8 1020.4 961.2
16 17.01 ЮЗ 4 н/о н/о +6.9 +2.5 74 +3 +3 1020.5 960.7
17 17.01 ЮЗ 4 н/о н/о +5.6 +3.6 87 +2 +2 1021.0 960.9
18 17.01 ЮЗ 4 н/о н/о +5.0 +4.1 94 +1 +1 1021.0 960.8 +10.5
19 17.01 ЮЗ 5 н/о н/о +5.4 +5.3 99 +1 +1 1020.8 960.7
20 17.01 ЮЗ 5 н/о н/о +5.4 +5.4 100 +1 +1 1020.8 960.7
22 17.01 ЮЗ 5 н/о н/о +5.6 +5.6 100 +1 +1 1020.4 960.4
23 17.01 ЮЗ 5 н/о н/о +5.7 +5.7 100 +1 +1 1020.1 960.1
00 18.01 ЮЗ 3 н/о н/о +6.1 +6.1 100 +3 +3 1019.5 959.6
01 18.01 ЮЗ 4 н/о н/о +5.9 +5.9 100 +2 +2 1019.2 959.3
02 18.01 ЮЗ 5 н/о н/о +5.9 +5.9 100 +1 +1 1018.9 959.0
04 18.01 ЮЗ 5 н/о н/о +6.1 +4.6 90 +2 +2 1017.5 957.7
05 18.01 ЮЗ 6 н/о н/о +6.0 +3.6 85 +1 +1 1017.2 957.4
06 18.01 ЮЗ 3 н/о н/о +5.7 +4.8 94 +3 +3 1017.6 957.7 +4.9 407
07 18.01 Ю 4 н/о н/о +4.8 +4.7 99 +1 +1 1017.7 957.7
09 18.01 З 7 н/о н/о +8.3 +6.9 91 +4 +4 1017.5 958.2
10 18.01 З 5 н/о н/о +10.0 +6.5 79 +7 +7 1017.4 958.5
11 18.01 З 7 н/о н/о +11.1 +5.4 68 +8 +8 1016.6 957.9
12 18.01 З 6 н/о н/о +12.1 +5.9 66 +10 +10 1015.8 957.3
14 18.01 З 7 н/о н/о +10.5 +4.8 68 +7 +7 1016.1 957.3
13 18.01 З 6 н/о н/о +11.2 +5.0 66 +8 +8 1016.1 957.4
15 18.01 З 4 н/о н/о +10.1 +4.6 69 +8 +8 1016.3 957.4
16 18.01 ЮЗ 2 н/о н/о +8.9 +4.8 75 +7 +7 1016.6 957.4
17 18.01 З 4 н/о н/о +8.0 +4.0 76 +5 +5 1016.9 957.6
18 18.01 З 4 н/о н/о +7.5 +3.9 78 +4 +4 1017.3 957.8 +12.4
20 18.01 СЗ 6 н/о н/о +6.2 +2.6 78 +2 +2 1017.4 957.7
19 18.01 З 4 н/о н/о +6.3 +3.1 80 +3 +3 1017.4 957.7
21 18.01 СЗ 4 н/о н/о +5.2 +1.6 78 +1 +1 1018.0 958.0
22 18.01 СЗ 5 н/о н/о +5.6 +2.6 81 +1 +1 1017.9 958.0
23 18.01 СЗ 5 н/о н/о +5.0 +2.3 83 0 0 1017.9 957.9
00 19.01 СЗ 4 н/о н/о +4.9 +1.7 80 +1 +1 1017.7 957.7
02 19.01 З 4 н/о н/о +5.3 +2.1 80 +2 +2 1017.3 957.4
01 19.01 СЗ 3 н/о н/о +5.7 +2.7 81 +2 +2 1017.5 957.6
03 19.01 З 4 н/о н/о +5.2 +2.0 80 +1 +1 1017.2 957.3
04 19.01 З 4 н/о н/о +5.0 +1.6 79 +1 +1 1016.7 956.8
05 19.01 ЮЗ 2 н/о н/о +4.5 +1.7 82 +2 +2 1016.8 956.7
06 19.01 З 4 н/о н/о +4.8 +2.1 83 +1 +1 1016.9 956.9 +4.2 707
08 19.01 ЮЗ 3 н/о н/о +7.6 +5.4 86 +5 +5 1016.6 957.2
07 19.01 З 4 н/о н/о +6.5 +3.8 83 +3 +3 1016.5 956.9
09 19.01 ЮЗ 4 н/о н/о +9.0 +6.8 86 +6 +6 1017.0 957.8
10 19.01 ЮЗ 4 н/о н/о +9.2 +5.7 79 +7 +7 1017.1 958.0
11 19.01 ЮЗ 5 н/о н/о +11.2 +5.4 67 +9 +9 1015.9 957.2
12 19.01 ЮЗ 4 н/о н/о +11.7 +5.5 66 +10 +10 1015.2 956.7
14 19.01 З 3 н/о н/о +12.6 +5.2 61 +11 +11 1014.1 955.8
13 19.01 ЮЗ 2 н/о н/о +12.0 +5.6 65 +11 +11 1014.4 956.0
15 19.01 ЮЗ 2 н/о н/о +12.2 +5.1 62 +12 +12 1014.2 955.8
16 19.01 Ю 3 н/о н/о +9.8 +5.1 73 +8 +8 1014.6 955.7
17 19.01 ЮЗ 3 н/о н/о +7.6 +5.7 88 +5 +5 1015.3 956.0
18 19.01 С 10 н/о н/о +6.4 +5.2 92 0 0 1016.2 956.5 +12.8 0.8
20 19.01 СВ 2 н/о н/о +5.8 +5.7 99 +3 +3 1016.1 956.4
19 19.01 СВ 4 н/о н/о +5.8 +5.8 100 +2 +2 1016.4 956.6
21 19.01 штиль 0 н/о н/о +6.2 +4.7 90 +5 +5 1016.3 956.6
22 19.01 СВ 2 н/о н/о +6.0 +3.6 85 +4 +4 1016.7 956.9
23 19.01 С 4 н/о н/о +6.3 +3.8 84 +3 +3 1016.3 956.7
00 20.01 С 4 н/о н/о +5.7 +2.1 78 +2 +2 1016.2 956.4 1
02 20.01 С 3 н/о н/о +5.7 +1.9 77 +2 +2 1016.2 956.4
01 20.01 С 3 н/о н/о +5.7 +2.7 81 +2 +2 1016.1 956.4
03 20.01 С 3 н/о н/о +5.8 +2.0 77 +3 +3 1015.8 956.1
04 20.01 СЗ 2 н/о н/о +5.6 -0.3 66 +4 +4 1015.8 956.0
05 20.01 С 3 н/о н/о +4.6 +0.3 74 +1 +1 1016.1 956.1
06 20.01 С 2 н/о н/о +5.6 -0.5 65 +4 +4 1016.1 956.4 +4.3 1 105
08 20.01 штиль 0 н/о н/о +6.5 +2.5 76 +6 +6 1017.0 957.4
07 20.01 штиль 0 н/о н/о +6.1 -0.9 61 +6 +6 1016.7 956.9
09 20.01 штиль 0 н/о н/о +8.7 +1.3 60 +8 +8 1016.9 957.6
10 20.01 штиль 0 н/о н/о +9.6 +0.1 52 +9 +9 1016.8 957.7
11 20.01 штиль 0 н/о н/о +10.2 +3.6 64 +10 +10 1016.3 957.4
12 20.01 штиль 0 н/о н/о +10.8 +2.8 58 +10 +10 1015.6 956.9
14 20.01 Ю 3 н/о н/о +9.9 +2.9 62 +8 +8 1015.3 956.4
13 20.01 Ю 3 н/о н/о +10.1 +2.6 60 +8 +8 1015.3 956.5
15 20.01 Ю 5 н/о н/о +9.3 +3.2 66 +6 +6 1015.3 956.3
16 20.01 Ю 3 н/о н/о +7.9 +4.1 77 +5 +5 1015.9 956.6
17 20.01 Ю 2 н/о н/о +6.8 +4.1 83 +5 +5 1016.4 956.8
18 20.01 Ю 2 н/о н/о +6.5 +4.5 87 +4 +4 1016.5 956.9 +11.0
20 20.01 Ю 3 н/о н/о +5.8 +4.7 93 +3 +3 1016.9 957.1
19 20.01 Ю 3 н/о н/о +6.3 +4.8 90 +3 +3 1016.8 957.1
21 20.01 Ю 4 н/о н/о +5.6 +5.5 99 +2 +2 1017.3 957.4
22 20.01 ЮЗ 4 н/о н/о +5.5 +5.5 100 +1 +1 1017.5 957.6
23 20.01 ЮЗ 4 н/о н/о +4.6 +4.6 100 0 0 1017.4 957.4
00 21.01 ЮЗ 4 н/о н/о +5.6 +4.5 93 +1 +1 1017.0 957.1 2
02 21.01 ЮЗ 3 н/о н/о +5.5 +5.4 99 +2 +2 1016.9 957.0
01 21.01 ЮЗ 4 н/о н/о +5.3 +4.4 94 +1 +1 1016.9 957.0
03 21.01 ЮЗ 4 н/о н/о +5.6 +5.6 100 +2 +2 1016.5 956.7
04 21.01 ЮЗ 3 н/о н/о +5.8 +5.8 100 +2 +2 1016.1 956.4
05 21.01 Ю 4 н/о н/о +6.3 +6.3 100 +2 +2 1015.8 956.2
06 21.01 Ю 5 н/о н/о +6.6 +6.6 100 +2 +2 1016.1 956.5 +4.4 2 8
08 21.01 ЮЗ 5 н/о н/о +7.3 +7.3 100 +3 +3 1016.4 956.9
07 21.01 Ю 4 н/о н/о +6.8 +6.8 100 +3 +3 1016.2 956.7
09 21.01 ЮЗ 5 н/о н/о +7.7 +7.7 100 +4 +4 1016.5 957.1
10 21.01 ЮЗ 5 н/о н/о +7.9 +7.9 100 +4 +4 1016.4 957.1
11 21.01 ЮЗ 4 н/о н/о +8.1 +8.1 100 +5 +5 1015.6 956.4
12 21.01 Ю 6 н/о н/о +8.5 +8.5 100 +4 +4 1014.9 955.8
14 21.01 Ю 6 н/о н/о +8.8 +7.9 94 +5 +5 1014.2 955.2
13 21.01 Ю 6 н/о н/о +9.1 +8.8 98 +5 +5 1014.3 955.3
15 21.01 ЮЗ 4 н/о н/о +8.6 +8.0 96 +6 +6 1014.3 955.2
16 21.01 ЮЗ 3 н/о н/о +8.3 +8.3 100 +5 +5 1014.0 954.9
17 21.01 ЮЗ 3 н/о н/о +7.9 +7.9 100 +5 +5 1013.9 954.7
18 21.01 ЮЗ 4 н/о н/о +7.9 +7.9 100 +4 +4 1013.8 954.6 +9.5
20 21.01 ЮЗ 7 н/о н/о +8.4 +8.4 100 +4 +4 1013.0 954.0
19 21.01 ЮЗ 7 н/о н/о +8.2 +8.2 100 +4 +4 1013.4 954.3
21 21.01 ЮЗ 7 н/о н/о +7.8 +7.8 100 +3 +3 1013.1 954.0
22 21.01 ЮЗ 7 н/о н/о +8.4 +8.4 100 +4 +4 1012.6 953.6
23 21.01 ЮЗ 8 н/о н/о +7.6 +7.6 100 +3 +3 1012.5 953.4
00 22.01 Ю 6 н/о н/о +7.4 +7.4 100 +3 +3 1012.0 952.8 3
02 22.01 ЮЗ 6 н/о н/о +7.7 +7.7 100 +3 +3 1010.8 951.7
01 22.01 ЮЗ 8 н/о н/о +7.5 +7.5 100 +2 +2 1011.4 952.3
03 22.01 ЮЗ 6 н/о н/о +7.7 +7.7 100 +3 +3 1009.9 950.9
04 22.01 ЮЗ 7 н/о н/о +7.6 +7.6 100 +3 +3 1009.3 950.3
05 22.01 ЮЗ 6 н/о н/о +7.8 +7.8 100 +3 +3 1009.1 950.2
06 22.01 Ю 4 н/о н/о +7.7 +7.7 100 +4 +4 1008.4 949.5 +7.2 3
08 22.01 ЮЗ 5 н/о н/о +8.0 +8.0 100 +4 +4 1007.9 949.1
07 22.01 Ю 6 н/о н/о +7.9 +7.9 100 +3 +3 1008.0 949.2
09 22.01 ЮЗ 7 н/о н/о +8.4 +8.4 100 +4 +4 1007.5 948.8
10 22.01 ЮЗ 7 н/о н/о +8.8 +8.8 100 +4 +4 1007.2 948.6
11 22.01 ЮЗ 5 н/о н/о +9.9 +9.9 100 +7 +7 1005.8 947.6
12 22.01 ЮЗ 6 н/о н/о +9.4 +9.4 100 +5 +5 1005.7 947.3
14 22.01 З 6 н/о н/о +8.5 +8.5 100 +4 +4 1004.3 945.8
13 22.01 ЮЗ 7 н/о н/о +8.7 +8.7 100 +4 +4 1005.1 946.6
15 22.01 З 5 н/о н/о +9.0 +8.1 94 +5 +5 1004.6 946.2
16 22.01 З 2 н/о н/о +8.7 +7.0 89 +7 +7 1004.6 946.1
17 22.01 СЗ 4 н/о н/о +6.6 +5.2 91 +3 +3 1005.1 946.2
18 22.01 З 6 н/о н/о +6.1 +4.1 87 +1 +1 1005.8 946.6 +10.7 0.2
20 22.01 З 5 н/о н/о +5.9 +2.5 79 +2 +2 1005.6 946.5
19 22.01 СЗ 3 н/о н/о +5.3 +2.1 80 +2 +2 1005.9 946.6
21 22.01 З 7 н/о н/о +5.7 +1.9 77 +1 +1 1005.9 946.8
22 22.01 З 3 н/о н/о +5.1 +1.7 79 +2 +2 1006.4 947.1
23 22.01 З 5 н/о н/о +4.2 +1.7 84 -1 -1 1006.5 947.0
00 23.01 З 4 н/о н/о +4.2 +1.9 85 0 0 1006.1 946.6
02 23.01 З 5 н/о н/о +3.0 +1.3 89 -2 -2 1005.5 945.8
01 23.01 З 4 н/о н/о +4.3 +2.3 87 -0 -0 1005.7 946.3
03 23.01 З 4 н/о н/о +2.8 +1.5 91 -2 -2 1005.2 945.4
04 23.01 СЗ 4 н/о н/о +3.3 +2.0 91 -2 -2 1005.1 945.5
05 23.01 З 4 н/о н/о +3.8 +1.6 86 -0 -0 1004.2 944.7
06 23.01 З 5 н/о н/о +2.8 +1.1 89 -3 -3 1004.3 944.6 +2.0
08 23.01 З 5 н/о н/о +4.1 +1.8 85 -1 -1 1003.3 944.0
07 23.01 ЮЗ 3 н/о н/о +3.0 +1.5 90 -1 -1 1003.9 944.3
09 23.01 штиль 0 н/о н/о +6.7 +3.1 78 +6 +6 1002.3 943.6
10 23.01 З 8 н/о н/о +7.4 +2.6 72 +3 +3 1001.8 943.2
11 23.01 З 7 н/о н/о +7.2 +2.4 72 +3 +3 1000.5 942.0
12 23.01 З 3 н/о н/о +8.2 +2.6 68 +6 +6 999.2 941.0
14 23.01 штиль 0 н/о н/о +8.7 +2.6 66 +8 +8 997.1 939.1
13 23.01 ЮЗ 2 н/о н/о +8.3 +2.9 69 +7 +7 998.1 939.9
15 23.01 штиль 0 н/о н/о +8.1 +2.3 67 +8 +8 997.3 939.1
16 23.01 З 1 н/о н/о +6.6 +3.0 78 +7 +7 997.5 939.0
17 23.01 В 2 н/о н/о +5.5 +1.2 74 +3 +3 997.5 938.8
18 23.01 СВ 2 н/о н/о +5.7 +1.6 75 +4 +4 997.5 938.8 +9.3
20 23.01 В 2 н/о н/о +5.2 +1.1 75 +3 +3 997.2 938.4
19 23.01 СВ 1 н/о н/о +5.3 +1.0 74 +4 +4 997.2 938.5

 

Местоположение метеостанции Матера (Италия): широта 40.67 долгота 16.66 высота над уровнем моря 498 м.

В архиве по умолчанию представлена погода в Матере за последнюю неделю. Архивные данные за месяц целиком и за предыдущие месяцы, начиная с января 2011 года, Вы можете получить, выбрав интересующий диапазон дат из раскрывающегося списка и нажав кнопку "Ввод!".


*Определитесь, кто Вы:
робот инопланетянин человек

Внимание! Время в таблицах - всемирное. Для получения местного времени необходимо прибавить поправку, которая равна 1 ч.

Смотрите также архив погоды в соседних городах и на ближайших метеорологических станциях:

Погода в Джоя-дель-Колле (Италия) (25 км)
Погода в Джинозе (Италия) (33 км)
Погода в Мартина-Франка (Италия) (47 км)
Погода в Бари аэропорту (Италия) (52 км)
Погода в Бари (Италия) (53 км)
Погода в Латронико (Италия) (85 км)
Погода в Бриндиси (Италия) (109 км)
Погода в Амендоле (Италия) (124 км)
Погода в Тревико (Италия) (128 км)
Погода в Монте-Сант-Анджело (Италия) (129 км)

Пояснения к столбцам:

Ветер - указаны скорость ветра в м/с - средняя за 10 мин, порывы в срок и между сроками (в фигурных скобках) и направление, откуда дует ветер: С - северный, СВ - северо-восточный, В - восточный, ЮВ - юго-восточный, Ю - южный, ЮЗ - юго-западный, З - западный, СЗ - северо-западный.
Видимость - горизонтальная дальность видимости в метрах или километрах. При видимости от 1 до 10 км при отсутствии осадков обычно наблюдается дымка, при ухудшении видимости до 1 км и менее - туман. В сухую погоду видимость может ухудшаться дымом, пылью или мглою.
Явления - указаны атмосферные явления, наблюдавшиеся в срок или в последний час перед сроком; фигурными скобками обозначены явления, наблюдавшиеся между сроками (за 1-3 часа до срока); квадратными скобками обозначены град или гололедные отложения с указанием их диаметра в мм.
Облачность - указаны через наклонную черту общая и нижняя облачность в баллах и высота нижней границы облаков в метрах; квадратными скобками обозначены формы облаков: Ci - перистые, Cs - перисто-слоистые, Cc - перисто-кучевые, Ac - высококучевые, As - высокослоистые, Sc - слоисто-кучевые, Ns - слоисто-дождевые, Cu - кучевые, Cb - кучево-дождевые. Подробнее классификацию облаков см. в Атласе облаков (PDF).
T - Температура воздуха - температура, измеренная на высоте 2 м над землей.
Td - Температура точки росы - температура, при понижении до которой содержащийся в воздухе водяной пар достигнет насыщения.
f - Относительная влажность воздуха - влажноcть воздуха, измеренная на высоте 2 м над землей.
Te - Эффективная температура - температура, которую ощущает одетый по сезону человек в тени. Характеристика душности погоды. При расчете учитывается влияние влажности воздуха и скорости ветра на теплоощущения человека.
Tes - Эффективная температура на солнце - температура, которую ощущает человек, с поправкой на солнечный нагрев. Характеристика знойности погоды. Зависит от высоты солнца над горизонтом, облачности и скорости ветра. Ночью, в пасмурную погоду, а также при ветре 12 м/с и более поправка равна нулю.
P - Атмосферное давление - приведенное к уровню моря атмосферное давление.
Po - Атмосферное давление - измеренное на уровне метеостанции атмосферное давление.
Tmin - Минимальная температура - минимум температуры воздуха на высоте 2 м над землей.
Tmax - Максимальная температура - максимум температуры воздуха на высоте 2 м над землей.
R - Количество осадков - Количество выпавших осадков за период времени, мм. При наведении курсора мыши на число - период времени, за который выпало указанное количество осадков.
R24 - Количество осадков - Количество выпавших осадков за 24 часа, мм.
S - Снежный покров - Высота снежного покрова, см. При наведении курсора мыши на число - состояние снежного покрова и степень покрытия местности в баллах.